VK3GY-13 Weather Reports


Display with metric or nautical units.
time (UTC)temp
F
wind
direction
speed
MPH
gust
MPH
rain 1hr
in
rain 24hr
in
rain mn
in
humidity
%
barometer
mb
20260903035010 62 256 6.0 16.0 0.00 0.00 0.00 70 1011.6
20260903034012 61 251 7.0 18.0 0.00 0.00 0.00 71 1011.6
20260903033011 61 265 9.0 18.0 0.00 0.00 0.00 71 1011.5
20260903032011 61 283 6.0 15.0 0.00 0.00 0.00 74 1011.4
20260903031011 60 267 8.0 15.0 0.00 0.00 0.00 73 1011.3
20260903030010 60 274 11.0 18.0 0.00 0.00 0.00 74 1011.4
20260903024011 59 276 7.0 18.0 0.00 0.00 0.00 75 1011.4
20260903023010 59 266 8.0 16.0 0.00 0.00 0.00 75 1011.3
20260903021011 58 283 5.0 17.0 0.00 0.00 0.00 77 1011.0
20260903020011 57 275 9.0 16.0 0.00 0.00 0.00 77 1010.9
20260903015011 57 284 10.0 16.0 0.00 0.00 0.00 80 1010.8
20260903014011 57 281 7.0 17.0 0.00 0.00 0.00 83 1010.9
20260903013011 57 281 9.0 16.0 0.00 0.00 0.00 84 1010.9
20260903012011 57 289 7.0 16.0 0.00 0.00 0.00 84 1010.8
20260903010011 56 316 7.0 16.0 0.00 0.00 0.00 86 1010.8
20260903005012 55 297 9.0 17.0 0.00 0.00 0.00 86 1010.7
20260903004011 55 294 8.0 18.0 0.00 0.00 0.00 86 1010.7
20260903003012 55 294 10.0 17.0 0.00 0.00 0.00 85 1010.6
20260903002011 55 287 10.0 20.0 0.00 0.00 0.00 84 1010.5
20260903001011 56 284 10.0 22.0 0.00 0.00 0.00 80 1010.4
20260903000011 57 287 12.0 28.0 0.00 0.00 0.00 76 1010.2
20260902235011 58 282 13.0 22.0 0.00 0.00 0.00 73 1009.8
20260902234011 57 298 9.0 23.0 0.00 0.00 0.00 73 1009.6
20260902232011 57 294 8.0 18.0 0.00 0.00 0.00 75 1009.4
20260902231010 56 310 8.0 18.0 0.00 0.00 0.00 75 1009.3
20260902230011 56 320 11.0 20.0 0.00 0.00 0.00 75 1009.2
20260902225010 56 302 6.0 20.0 0.00 0.00 0.00 75 1008.9
20260902224011 56 290 8.0 20.0 0.00 0.00 0.00 74 1008.9
20260902222011 54 329 5.0 12.0 0.00 0.00 0.00 75 1008.9
20260902221011 54 335 4.0 12.0 0.00 0.00 0.00 75 1008.9
20260902220010 53 318 5.0 13.0 0.00 0.00 0.00 75 1008.6
20260902215011 53 0 4.0 12.0 0.00 0.00 0.00 74 1008.3
20260902213010 53 327 6.0 12.0 0.00 0.00 0.00 73 1008.4
20260902212011 53 325 5.0 12.0 0.00 0.00 0.00 74 1008.5
20260902211011 53 304 7.0 12.0 0.00 0.00 0.00 74 1008.4
20260902210010 53 301 6.0 14.0 0.00 0.00 0.00 73 1008.3
20260902205011 53 314 7.0 13.0 0.00 0.00 0.00 72 1007.9
20260902204014 53 318 7.0 15.0 0.00 0.00 0.00 72 1007.6
20260902203010 53 315 6.0 16.0 0.00 0.00 0.00 72 1007.7
20260902202011 54 305 7.0 16.0 0.00 0.00 0.00 71 1007.7
20260902201011 53 319 6.0 14.0 0.00 0.00 0.00 72 1007.6
20260902194011 52 303 5.0 12.0 0.00 0.00 0.00 74 1007.9
20260902193011 52 313 5.0 12.0 0.00 0.00 0.00 75 1007.8
20260902192012 51 341 3.0 12.0 0.00 0.00 0.00 75 1007.7
20260902191011 51 333 5.0 9.0 0.00 0.00 0.00 75 1007.8
20260902190011 51 323 3.0 8.0 0.00 0.00 0.00 74 1007.8
20260902185011 52 335 4.0 14.0 0.00 0.00 0.00 74 1007.6
20260902184011 52 342 5.0 12.0 0.00 0.00 0.00 74 1007.5
20260902183011 52 336 5.0 12.0 0.00 0.00 0.00 74 1007.5
20260902182012 52 339 3.0 14.0 0.00 0.00 0.00 75 1007.5
20260902181010 51 335 4.0 12.0 0.00 0.00 0.00 76 1007.6
20260902175011 51 325 3.0 9.0 0.00 0.00 0.00 77 1007.9
20260902174011 51 329 3.0 9.0 0.00 0.00 0.00 77 1007.8
20260902173011 51 331 4.0 8.0 0.00 0.00 0.00 76 1008.0
20260902171011 52 338 3.0 6.0 0.00 0.00 0.00 75 1008.0
20260902170012 52 338 3.0 9.0 0.00 0.00 0.00 75 1008.3
20260902165011 52 340 4.0 9.0 0.00 0.00 0.00 76 1008.5
20260902164012 52 316 5.0 12.0 0.00 0.00 0.00 77 1008.7
20260902163011 51 298 8.0 15.0 0.00 0.00 0.00 78 1008.7
20260902162011 51 292 8.0 14.0 0.00 0.00 0.00 78 1008.7
20260902161010 50 320 5.0 10.0 0.00 0.00 0.00 79 1008.7
20260902154011 50 348 2.0 5.0 0.00 0.00 0.00 77 1008.8
20260902153011 50 346 3.0 5.0 0.00 0.00 0.00 77 1008.9
20260902151011 50 344 2.0 3.0 0.00 0.00 0.00 77 1009.1
20260902150010 50 346 2.0 6.0 0.00 0.00 0.00 77 1009.0
20260902145011 50 313 3.0 5.0 0.00 0.00 0.00 76 1009.0
20260902144012 50 308 2.0 5.0 0.00 0.00 0.00 76 1009.0
20260902143011 50 313 3.0 8.0 0.00 0.00 0.00 76 1009.1
20260902142011 50 315 5.0 10.0 0.00 0.00 0.00 77 1009.1
20260902140011 50 327 4.0 9.0 0.00 0.00 0.00 79 1009.2
20260902135011 50 344 3.0 9.0 0.00 0.00 0.00 80 1009.3
20260902134011 50 339 3.0 8.0 0.00 0.00 0.00 80 1009.4
20260902133012 51 336 2.0 6.0 0.00 0.00 0.00 80 1009.5
20260902132011 51 338 3.0 8.0 0.00 0.00 0.00 80 1009.7
20260902130011 52 259 2.0 6.0 0.00 0.00 0.00 80 1009.9
20260902125011 52 254 2.0 3.0 0.00 0.00 0.00 80 1010.0
20260902124011 52 254 2.0 5.0 0.00 0.00 0.00 80 1010.0
20260902123011 52 250 2.0 5.0 0.00 0.01 0.00 79 1010.1
20260902122011 52 248 1.0 3.0 0.00 0.01 0.00 79 1010.3
20260902120013 53 247 0.0 2.0 0.00 0.01 0.00 79 1010.4
20260902115011 53 247 0.0 3.0 0.00 0.01 0.00 79 1010.4
20260902113013 53 247 2.0 3.0 0.00 0.02 0.00 79 1010.7
20260902112012 53 246 2.0 3.0 0.00 0.02 0.00 79 1010.6
20260902110010 53 246 2.0 3.0 0.00 0.02 0.00 78 1010.7
20260902105011 53 246 2.0 3.0 0.00 0.02 0.00 78 1010.7
20260902104011 52 246 1.0 3.0 0.00 0.02 0.00 78 1010.8
20260902103011 52 246 1.0 3.0 0.00 0.02 0.00 78 1010.9
20260902101011 52 246 1.0 2.0 0.00 0.02 0.00 77 1010.7
20260902100011 52 246 1.0 2.0 0.00 0.03 0.00 77 1010.6
20260902095010 52 246 1.0 2.0 0.00 0.03 0.00 76 1010.5
20260902094011 52 246 0.0 2.0 0.00 0.03 0.00 76 1010.3
20260902093011 52 246 0.0 2.0 0.00 0.03 0.00 75 1010.2
20260902092011 53 246 0.0 2.0 0.00 0.03 0.00 75 1010.2
20260902091010 53 246 0.0 0.0 0.00 0.03 0.00 74 1010.2
20260902085011 53 246 1.0 3.0 0.00 0.03 0.00 73 1010.1
20260902084011 54 246 1.0 3.0 0.00 0.03 0.00 73 1010.1
20260902083011 54 246 2.0 5.0 0.00 0.03 0.00 73 1010.2
20260902081011 55 237 3.0 6.0 0.00 0.03 0.00 72 1010.2
20260902080012 55 236 2.0 5.0 0.00 0.03 0.00 71 1010.2
20260902075010 56 236 2.0 5.0 0.00 0.03 0.00 70 1010.2
20260902074011 57 235 2.0 5.0 0.00 0.03 0.00 69 1010.1
20260902073011 57 236 2.0 5.0 0.00 0.03 0.00 69 1010.1
20260902072010 58 235 2.0 6.0 0.00 0.03 0.00 67 1010.0
20260902071011 59 237 3.0 6.0 0.00 0.03 0.00 66 1010.0
20260902070011 59 243 3.0 8.0 0.00 0.03 0.00 66 1010.1
20260902065011 60 230 4.0 10.0 0.00 0.03 0.00 65 1010.1
20260902064011 60 247 3.0 7.0 0.00 0.03 0.00 63 1010.3
20260902063011 60 244 3.0 12.0 0.00 0.03 0.00 64 1010.4
20260902062011 60 239 7.0 12.0 0.00 0.03 0.00 62 1010.6
20260902061011 61 243 7.0 12.0 0.00 0.03 0.00 61 1010.6
20260902060010 61 246 7.0 12.0 0.00 0.03 0.00 60 1010.7
20260902054011 61 245 6.0 14.0 0.00 0.03 0.00 61 1010.9
20260902053010 61 237 7.0 14.0 0.00 0.03 0.00 62 1010.9
20260902051011 62 252 6.0 12.0 0.00 0.03 0.00 62 1011.1
20260902050011 62 234 6.0 14.0 0.00 0.03 0.00 62 1011.2
20260902044011 62 236 8.0 15.0 0.00 0.03 0.00 60 1011.1
20260902043011 62 231 6.0 14.0 0.00 0.03 0.00 61 1011.1
20260902042011 62 250 8.0 15.0 0.00 0.03 0.00 61 1011.1
20260902041011 62 264 6.0 14.0 0.00 0.03 0.00 61 1011.1
20260902040011 62 241 7.0 13.0 0.00 0.03 0.00 61 1011.3